www.pogodaiklimat.ru

Погода и климат >> Архив погоды >> Россия >> Мурманская область >> Порт Витино


ПОГОДА в Порту Витино

  • Прогноз погоды в Порту Витино
  • Монитор погоды в Порту Витино

АРХИВ ПОГОДЫ в Порту Витино

Время (UTC), дата Ветер
(напр.,м/с)
 
Видим.   Явления Облачность Т
(С)
Тd
(С)
f
(%)
Тe
(С)
Тes
(С)
Комфортность P
(гПа)
Po
(гПа)
Тmin
(С)
Tmax
(С)
R
(мм)
R24
(мм)
S
(см)
06 15.09 З 2 н/о н/о +5.3 +2.3 81 +3 +3 1002.5 1001.9 +1.7
09 15.09 СЗ 4 н/о н/о +8.2 +3.2 71 +5 +5 1000.4 999.8
12 15.09 С 5 н/о н/о +9.3 +2.8 64 +6 +6 998.4 997.8
15 15.09 С 4 н/о н/о +8.2 +3.2 71 +5 +5 996.2 995.6
18 15.09 С 4 н/о н/о +7.0 +3.3 77 +4 +4 994.2 993.6 +9.6
21 15.09 СЗ 5 н/о н/о +6.4 +3.8 83 +2 +2 992.5 991.9
00 16.09 СЗ 5 н/о н/о +6.3 +4.6 89 +2 +2 991.4 990.7
03 16.09 СЗ 4 н/о н/о +6.7 +5.1 90 +3 +3 990.7 990.1 +6.1
06 16.09 С 2 н/о н/о +8.1 +6.4 89 +6 +6 990.5 989.9 +6.1
09 16.09 С 4 н/о н/о +9.5 +5.9 78 +7 +7 991.3 990.7
12 16.09 С 4 н/о н/о +9.9 +5.0 72 +7 +7 992.6 992.0
15 16.09 С 5 н/о н/о +9.7 +5.7 76 +7 +7 993.5 992.9
18 16.09 С 3 н/о н/о +8.9 +5.9 81 +6 +6 994.6 994.0 +10.4
21 16.09 СЗ 2 н/о н/о +7.7 +4.6 81 +6 +6 995.5 994.9
00 17.09 СЗ 4 н/о н/о +7.5 +4.7 82 +4 +4 996.1 995.5
03 17.09 С 3 н/о н/о +6.9 +3.8 81 +4 +4 997.1 996.4 +6.9
06 17.09 С 2 н/о н/о +6.5 +2.8 77 +4 +4 998.3 997.7 +6.3
09 17.09 С 4 н/о н/о +7.4 +1.0 64 +4 +4 999.6 998.9
12 17.09 С 4-7
{10}
н/о н/о +8.1 +0.8 60 +5 +5 1000.4 999.8
15 17.09 СВ 4-6
{10}
н/о н/о +7.1 +1.4 67 +4 +4 1001.6 1001.0
18 17.09 СЗ 4 н/о н/о +5.6 +1.2 73 +2 +2 1002.7 1002.1 +8.6
21 17.09 СЗ 4 н/о н/о +3.4 +1.0 84 -1 -1 1003.8 1003.2
00 18.09 З 2 н/о н/о +2.5 +0.1 84 -1 -1 1004.6 1004.0
03 18.09 СЗ 5 н/о н/о +3.2 +1.0 85 -2 -2 1004.7 1004.1 +1.2
06 18.09 СЗ 6 н/о н/о +4.5 +1.0 78 -1 -1 1005.3 1004.7 +1.2
09 18.09 СЗ 8-10
{10}
н/о н/о +5.9 +0.9 70 +1 +1 1006.4 1005.7
12 18.09 СЗ 7-10
{10}
н/о н/о +6.5 +1.3 69 +2 +2 1007.0 1006.4
15 18.09 СЗ 7-9
{10}
н/о н/о +6.8 +0.3 63 +2 +2 1007.2 1006.6
18 18.09 З 2-3
{10}
н/о н/о +2.8 -1.5 73 0 0 1007.8 1007.1 +6.9
21 18.09 З 4 н/о н/о +2.1 -1.4 78 -3 -3 1008.2 1007.5
00 19.09 СЗ 4 н/о н/о +1.8 -0.8 83 -3 -3 1008.5 1007.9
03 19.09 СЗ 3 н/о н/о +2.0 -0.4 84 -2 -2 1008.7 1008.1 +1.0
06 19.09 СЗ 2 н/о н/о +3.7 -0.2 76 +1 +1 1008.8 1008.2 +0.4
09 19.09 СЗ 5 н/о н/о +5.3 0.0 69 +1 +1 1009.0 1008.4
12 19.09 СЗ 3 н/о н/о +6.2 -0.3 63 +3 +3 1009.0 1008.4
15 19.09 СЗ 4 н/о н/о +5.6 -1.8 59 +2 +2 1008.8 1008.2
18 19.09 З 3-4
{11}
н/о н/о +1.6 -2.1 76 -3 -3 1008.4 1007.7 +6.3
00 20.09 ЮЗ 1 н/о н/о +1.2 -2.5 76 -0 -0 1006.1 1005.4
03 20.09 З 6 н/о +2.6 -0.7 79 -3 -3 1017.6 1007.6 +1.0
06 20.09 СЗ 5-8
{10}
н/о н/о +4.0 -0.5 72 -1 -1 1003.5 1002.9 +1.0
09 20.09 СЗ 10-14
{14}
н/о н/о +5.7 +0.2 68 -0 -0 1003.5 1002.8
12 20.09 СЗ 6-9
{14}
н/о н/о +6.5 +1.2 69 +2 +2 1004.4 1003.8
15 20.09 СЗ 8-12
{14}
н/о н/о +6.3 +1.5 71 +1 +1 1004.9 1004.3
18 20.09 СЗ 6-8
{12}
н/о н/о +5.0 +0.7 74 0 0 1005.4 1004.8 +6.9
21 20.09 СЗ 5-8
{10}
н/о н/о +4.5 +0.1 73 -0 -0 1005.5 1004.8
00 21.09 З 3 н/о н/о +1.0 -1.4 84 -3 -3 1005.4 1004.8
03 21.09 З 3 н/о н/о +1.1 -1.2 85 -3 -3 1005.4 1004.7 +1.0

 

Местоположение метеостанции Порт Витино (Мурманская область, Россия): широта 67.08 долгота 32.33 высота над уровнем моря 5 м.

В архиве по умолчанию представлена погода в Порту Витино за последнюю неделю. Архивные данные за месяц целиком и за предыдущие месяцы, начиная с января 2011 года, Вы можете получить, выбрав интересующий диапазон дат из раскрывающегося списка и нажав кнопку "Ввод!".


*Определитесь, кто Вы:
робот инопланетянин человек

Внимание! Время в таблицах - всемирное. Для получения местного времени необходимо прибавить поправку, которая равна 3 ч.

Смотрите также архив погоды в соседних городах и на ближайших метеорологических станциях:

Погода в Порту Кандалакша (Мурманская область, Россия) (7 км)
Погода в Кандалакше (Мурманская область, Россия) (8 км)
Погода в Зашейке (Мурманская область, Россия) (37 км)
Погода в Ковде (Мурманская область, Россия) (49 км)
Погода в Зареченске (Мурманская область, Россия) (59 км)
Погода в Апатитах (Мурманская область, Россия) (68 км)
Погода в Кировске (Мурманская область, Россия) (83 км)
Погода в Алакуртти (Мурманская область, Россия) (86 км)
Погода в Ковдоре (Мурманская область, Россия) (97 км)
Погода в Мончегорске (Мурманская область, Россия) (98 км)

Пояснения к столбцам:

Ветер - указаны скорость ветра в м/с - средняя за 10 мин, порывы в срок и между сроками (в фигурных скобках) и направление, откуда дует ветер: С - северный, СВ - северо-восточный, В - восточный, ЮВ - юго-восточный, Ю - южный, ЮЗ - юго-западный, З - западный, СЗ - северо-западный.
Видимость - горизонтальная дальность видимости в метрах или километрах. При видимости от 1 до 10 км при отсутствии осадков обычно наблюдается дымка, при ухудшении видимости до 1 км и менее - туман. В сухую погоду видимость может ухудшаться дымом, пылью или мглою.
Явления - указаны атмосферные явления, наблюдавшиеся в срок или в последний час перед сроком; фигурными скобками обозначены явления, наблюдавшиеся между сроками (за 1-3 часа до срока); квадратными скобками обозначены град или гололедные отложения с указанием их диаметра в мм.
Облачность - указаны через наклонную черту общая и нижняя облачность в баллах и высота нижней границы облаков в метрах; квадратными скобками обозначены формы облаков: Ci - перистые, Cs - перисто-слоистые, Cc - перисто-кучевые, Ac - высококучевые, As - высокослоистые, Sc - слоисто-кучевые, Ns - слоисто-дождевые, Cu - кучевые, Cb - кучево-дождевые. Подробнее классификацию облаков см. в Атласе облаков (PDF).
T - Температура воздуха - температура, измеренная на высоте 2 м над землей.
Td - Температура точки росы - температура, при понижении до которой содержащийся в воздухе водяной пар достигнет насыщения.
f - Относительная влажность воздуха - влажноcть воздуха, измеренная на высоте 2 м над землей.
Te - Эффективная температура - температура, которую ощущает одетый по сезону человек в тени. Характеристика душности погоды. При расчете учитывается влияние влажности воздуха и скорости ветра на теплоощущения человека.
Tes - Эффективная температура на солнце - температура, которую ощущает человек, с поправкой на солнечный нагрев. Характеристика знойности погоды. Зависит от высоты солнца над горизонтом, облачности и скорости ветра. Ночью, в пасмурную погоду, а также при ветре 12 м/с и более поправка равна нулю.
P - Атмосферное давление - приведенное к уровню моря атмосферное давление.
Po - Атмосферное давление - измеренное на уровне метеостанции атмосферное давление.
Tmin - Минимальная температура - минимум температуры воздуха на высоте 2 м над землей.
Tmax - Максимальная температура - максимум температуры воздуха на высоте 2 м над землей.
R - Количество осадков - Количество выпавших осадков за период времени, мм. При наведении курсора мыши на число - период времени, за который выпало указанное количество осадков.
R24 - Количество осадков - Количество выпавших осадков за 24 часа, мм.
S - Снежный покров - Высота снежного покрова, см. При наведении курсора мыши на число - состояние снежного покрова и степень покрытия местности в баллах.